Tracking 20472 objects as of 28-Feb-2020
HD Live streaming from Space Station
objects crossing your sky now

SL-8 DEB *

Track SL-8 DEB * now!
10-day predictions


NORAD ID: 3743
Int'l Code: 1965-020ES
Perigee: 1,393.5 km
Apogee: 1,802.4 km
Inclination: 56.7 °
Period: 118.0 minutes
Semi major axis: 7968 km
RCS: 0.0769 m2 (small)
Launch date: March 15, 1965
Source: Commonwealth of Independent States (former USSR) (CIS)
Launch site: TYURATAM MISSILE AND SPACE COMPLEX (TTMTR)

Note: This is SATELLITE DEBRIS
aabbcc
Your satellite tracking list
Your tracking list is empty




NASA's NSSDC Master Catalog

Two Line Element Set (TLE):
1  3743U 65020ES  20058.94519538 -.00000044  00000-0  35827-3 0  9996
2  3743  56.6617 291.7420 0256559 254.2419 202.2521 12.20398126293758
Source of the keplerian elements: AFSPC